Find Starlink 3574

NORAD ID: 51874 Int'l Des: 2022-022 Owner: SPXS Country: US Constellation: starlink operational
LEOCIRCULAR

实时位置

正在加载3D地球...

关于 Starlink 3574

正在加载描述...

即将过境

Passes for default location (London). Set your location on the main map for personalized predictions.

高度历史

Loading altitude history...

两行轨道根数

1 51874U 22022Y 26107.22868804 .00000123 00000-0 25804-4 0 9996
2 51874 53.2172 196.1133 0001143 85.4009 274.7113 15.08840090228929
Epoch: Apr 17, 2026 • Age: 8 hours

当前状态

高度 540.0 km
速度 7.59 km/s
星下点 5.04°N, 150.71°E
发射日期 Mar 3, 2022
运行时间 4.1 years
类型 internet

技术详情

分类 Payload
质量 297.00 kg
干质量 275.00 kg
总质量 297.00 kg
长度 0.20 m
直径 2.80 m
跨度 9.00 m
形状 Box + pan
制造商 SPXS
平台类型 Starlink
阶段状态 In Orbit
所有者/国家 SPXS/US

Most Searched